Wind_Speed
1 2 3 4 5 6 6 6 6 4 4 3 3 4 5 6 6 7 6 7 6 6 6 6 8 9 9 5 3 6 6 16 23 29 23 16 23 17 11 7 8 7 3 3 5 5 5 8 9 9 9 9 5 3 3 3 3 4 3 4 3 3 4 5 7 6 3 5 6 4 4 5 4 3 1 0 1 2 2 4 3 3 5 6 4 3 3 7
4 5 5 6 6 6 6 5 5 4 4 3 3 4 5 6 6 6 6 7 6 6 6 8 11 12 11 5 6 9 3 14 24 26 20 20 21 13 8 7 8 6 2 3 5 5 5 3 5 10 8 4 4 4 3 3 5 4 3 4 2 4 3 4 6 5 3 6 7 4 3 3 4 3 1 2 2 3 2 4 4 4 7 6 5 5 6 10
5 6 6 6 6 6 5 5 5 4 4 3 3 4 5 6 6 6 6 6 5 5 6 9 10 9 7 4 10 13 5 10 18 16 22 23 17 11 8 7 7 6 4 4 5 6 8 6 6 9 6 4 4 3 4 5 4 2 3 4 2 5 2 1 5 5 3 6 8 4 3 2 2 1 0 2 3 2 4 5 3 5 8 7 4 6 9 11
6 6 6 6 6 5 5 5 4 4 2 2 3 5 5 6 6 6 5 5 4 7 8 6 5 4 2 6 11 12 6 6 8 14 23 21 15 11 8 6 6 5 7 8 9 10 12 11 12 9 6 4 4 3 5 4 2 3 3 3 2 4 3 1 4 4 2 6 8 5 3 1 2 1 1 4 3 4 6 7 7 7 8 7 5 6 10 11
5 5 5 5 5 5 5 4 4 2 1 3 4 5 5 5 5 5 5 4 7 14 18 18 16 14 12 8 10 8 2 5 6 20 24 18 13 10 7 6 4 4 6 8 8 8 9 9 11 8 6 4 5 4 4 4 2 4 2 1 2 3 3 1 3 3 4 6 6 5 5 2 2 1 2 6 5 6 6 7 10 9 9 7 5 7 9 10
5 5 4 4 4 5 4 4 2 1 1 3 4 4 5 6 7 8 9 6 11 14 14 17 19 19 19 15 12 6 5 3 10 23 21 15 11 9 8 6 2 3 2 3 4 5 5 8 9 5 4 4 5 5 3 5 2 5 2 3 2 2 3 0 1 3 4 7 7 5 3 2 2 3 1 6 9 9 6 5 8 9 10 7 5 6 8 10
4 4 4 4 4 4 3 2 1 1 2 3 3 5 7 8 8 9 11 8 8 10 6 6 9 12 12 16 20 17 9 1 17 23 17 13 10 6 7 6 2 2 1 2 5 6 6 9 8 4 5 4 4 5 2 5 6 6 3 2 3 2 2 1 1 2 3 6 6 3 1 3 4 4 1 4 13 11 10 8 6 8 8 7 6 7 10 12
4 4 4 4 4 3 2 1 2 2 2 2 5 7 8 8 9 11 12 13 8 5 4 2 3 4 3 6 13 13 6 7 22 21 12 10 9 6 4 4 3 3 5 9 7 7 6 8 7 5 5 3 3 3 2 6 9 7 3 0 2 3 3 2 3 4 5 4 2 2 2 4 5 3 1 9 14 11 13 12 9 7 6 6 7 9 11 12
4 4 4 4 3 2 2 3 2 1 2 5 8 8 8 8 10 13 15 18 15 7 1 3 2 2 3 4 6 8 6 12 18 13 8 7 6 5 3 4 4 5 9 10 6 6 5 2 3 5 6 3 4 3 3 5 4 3 3 1 3 3 4 2 4 5 3 1 1 2 4 5 3 2 5 14 15 10 10 9 8 6 5 7 7 9 11 11
4 4 3 2 2 2 3 2 0 2 4 7 8 8 8 8 9 11 14 17 16 14 9 3 2 3 6 5 7 7 7 13 15 12 11 9 5 3 5 6 3 5 9 10 7 5 5 8 7 9 10 5 4 4 4 4 4 3 5 5 6 3 3 2 3 3 2 1 1 3 5 5 1 1 5 11 8 4 6 8 7 6 7 9 7 8 11 13
3 2 1 1 1 0 0 1 2 4 5 7 8 7 7 7 7 7 8 10 11 13 15 16 16 18 21 15 10 6 5 11 17 18 16 15 15 14 12 9 7 11 17 17 14 14 18 19 15 10 6 3 5 6 5 4 4 2 4 6 7 5 2 3 4 2 2 1 2 3 4 6 0 0 10 12 3 2 6 9 8 7 8 8 7 7 9 14
1 2 3 4 4 2 1 1 2 4 6 8 8 7 5 4 4 3 5 9 11 11 10 12 15 20 28 21 7 4 6 11 16 22 22 19 21 20 17 16 15 20 25 19 12 14 16 12 12 9 2 4 5 4 4 3 3 1 4 6 6 7 3 1 1 1 1 1 2 2 4 6 4 8 16 11 1 3 4 8 8 8 8 7 7 6 6 13
4 6 6 5 4 2 1 2 3 5 7 8 7 5 3 1 1 3 6 10 14 14 10 7 3 5 15 12 3 6 10 12 15 22 26 25 26 24 21 20 20 20 23 21 12 11 9 11 21 14 3 7 3 1 5 3 3 2 5 5 3 6 2 2 1 1 1 1 2 1 3 6 7 14 15 5 2 2 4 8 9 8 8 7 7 6 6 11
9 7 5 5 5 3 2 2 4 5 6 7 5 3 1 1 2 4 7 10 11 12 12 12 9 8 11 5 3 9 10 12 16 20 21 24 28 28 28 28 28 27 27 27 22 19 18 24 29 14 3 6 4 3 5 5 4 3 3 2 2 2 3 4 2 2 2 0 2 3 1 7 9 12 11 5 2 4 7 10 9 8 8 7 6 6 6 9
8 5 5 7 5 2 2 2 4 5 6 5 4 2 1 3 5 5 7 7 7 8 10 12 11 9 9 4 3 8 9 11 15 17 15 17 21 22 23 27 28 27 27 26 23 22 21 24 21 8 2 3 4 6 4 4 4 3 1 1 3 1 4 6 2 1 1 1 3 3 2 7 11 12 8 3 2 5 8 10 9 9 9 8 7 7 6 7
5 3 6 8 4 3 2 2 5 6 6 5 4 4 5 8 9 10 10 10 10 8 11 14 11 10 7 2 2 5 7 9 11 13 13 12 14 12 12 17 17 17 18 19 19 19 21 20 10 3 3 4 6 6 3 4 4 3 2 2 2 0 3 5 2 2 1 1 2 1 3 5 8 8 4 1 4 4 6 11 10 9 10 9 7 7 6 7
2 4 8 6 4 4 2 2 5 8 8 7 6 4 6 5 3 4 5 8 11 9 11 10 7 10 6 1 1 3 5 7 8 10 10 11 11 6 6 8 8 9 11 14 16 12 13 12 3 1 5 4 3 3 4 4 3 3 3 1 2 1 1 3 3 3 3 0 3 1 4 10 12 10 8 5 3 3 8 12 11 9 9 9 7 7 8 7
3 6 7 5 6 5 3 4 8 10 9 9 9 10 12 11 8 6 5 2 1 5 7 6 5 7 5 3 2 4 7 6 8 9 7 8 10 9 9 8 6 7 6 9 12 9 7 5 2 3 4 4 4 4 4 2 3 2 1 0 1 2 2 3 3 2 2 0 4 2 5 14 17 15 14 9 5 7 11 10 10 9 9 9 8 8 8 7
4 6 5 6 6 5 3 6 11 13 12 15 17 16 17 18 19 19 21 13 3 3 3 4 4 5 1 3 4 6 5 4 6 10 9 7 7 8 12 11 7 7 5 3 6 6 3 4 5 4 3 4 3 2 4 4 4 4 3 3 2 3 3 5 4 3 2 1 5 7 8 13 16 15 15 10 4 6 10 8 8 9 8 8 7 8 9 8
4 4 4 6 6 6 6 10 16 18 19 19 13 9 8 8 12 11 16 15 5 2 5 1 3 5 1 2 5 6 5 6 6 11 16 10 5 4 9 10 7 8 6 1 3 4 3 5 4 1 3 4 4 2 3 2 4 5 4 3 2 3 4 4 3 3 2 2 6 7 8 12 15 16 16 12 3 5 10 9 9 9 8 8 8 9 10 10
4 2 4 7 9 9 9 10 15 20 19 11 3 4 2 2 5 2 2 6 3 4 7 3 4 7 3 1 6 6 2 6 10 15 19 12 4 3 6 7 7 6 4 1 2 3 5 6 2 4 6 4 2 3 4 3 4 4 3 1 2 3 5 4 2 3 0 2 4 1 4 12 15 15 15 11 6 8 10 8 9 9 8 7 7 10 10 9
4 2 3 9 11 10 9 9 11 15 12 3 3 3 3 6 11 10 5 5 4 8 8 4 5 5 2 2 8 8 3 6 10 14 19 14 6 3 3 6 7 3 4 3 2 5 7 2 5 4 3 3 4 4 4 4 4 3 2 1 3 2 4 5 2 3 2 2 4 3 5 13 16 15 14 11 8 9 7 6 7 7 7 8 7 9 8 8
5 4 5 9 13 13 10 10 12 13 11 8 2 3 8 14 15 9 5 6 2 5 5 4 5 4 4 4 9 10 6 5 4 9 18 14 5 3 3 6 6 3 5 5 4 4 4 2 5 2 4 5 5 3 4 4 3 2 2 1 3 3 2 3 3 3 1 2 3 5 6 11 13 11 11 9 6 6 5 6 8 7 9 11 8 6 7 9
7 7 7 9 13 14 12 10 11 12 11 8 3 7 13 14 10 4 4 4 2 2 2 1 3 3 3 4 9 6 4 2 1 6 16 10 3 2 4 4 5 5 4 5 8 6 2 3 2 5 2 3 5 3 4 3 2 2 3 3 2 3 3 5 4 5 3 1 1 4 6 7 6 6 7 4 2 5 4 4 8 7 9 9 7 7 8 10
9 9 9 10 12 14 12 9 8 9 9 6 7 12 14 10 5 2 3 4 3 2 2 0 1 3 2 4 9 3 3 3 1 4 10 8 2 1 2 2 3 3 1 2 7 5 1 2 3 4 3 4 6 3 1 4 1 4 3 6 5 5 5 5 4 5 4 2 1 4 5 5 4 4 7 4 5 7 4 4 8 8 6 6 7 9 8 9
9 9 9 11 13 15 12 6 6 9 8 5 10 16 12 6 3 0 3 5 4 3 4 2 1 4 2 5 9 1 3 3 2 3 7 7 2 2 3 2 2 3 5 3 3 2 1 2 1 3 3 5 6 2 2 5 3 2 3 5 4 4 3 3 2 1 1 3 1 3 0 5 6 5 8 4 6 9 7 6 9 9 7 5 6 8 7 8
8 9 10 11 14 16 9 4 9 11 5 5 12 16 11 5 2 0 2 5 3 1 3 3 1 4 3 4 6 2 2 4 2 3 6 7 4 2 3 2 1 1 2 2 2 1 3 2 2 3 5 5 3 1 4 6 4 2 2 4 4 4 4 3 1 1 2 3 2 2 2 3 6 7 6 4 6 9 9 9 10 8 7 7 7 8 8 9
7 9 11 11 13 14 5 3 11 9 3 8 14 13 9 5 3 0 4 5 2 1 1 3 2 3 3 4 6 5 0 4 2 2 6 8 5 2 3 1 3 1 0 4 1 1 2 2 2 3 5 2 3 3 5 6 1 4 2 4 3 4 4 3 3 1 1 3 4 3 2 1 6 7 4 4 4 8 9 10 10 8 7 7 7 8 9 9
7 9 11 12 14 12 3 3 9 7 5 11 14 11 7 2 1 3 5 3 1 1 1 2 2 3 5 6 6 5 3 3 3 5 8 8 6 6 4 2 5 4 1 3 3 3 0 2 4 5 4 2 4 2 5 6 1 2 4 4 4 3 3 4 3 2 2 2 4 4 2 0 5 6 4 2 2 6 8 8 8 8 7 7 8 9 9 8
6 8 11 13 14 10 5 4 7 7 8 11 12 10 6 1 4 5 3 1 1 1 1 2 2 4 7 6 5 6 5 3 3 5 6 4 6 8 4 2 5 6 2 4 2 3 2 2 2 2 1 3 2 1 2 3 0 2 4 3 4 3 3 3 1 2 3 3 6 5 2 1 3 6 4 4 4 6 6 6 8 8 8 8 8 8 8 7
7 9 10 11 11 9 5 5 7 10 11 12 12 7 3 2 5 6 2 1 0 2 3 4 3 5 7 5 3 6 5 5 6 6 6 5 7 8 4 2 3 4 4 5 2 3 3 2 1 1 0 3 4 2 1 1 2 3 1 1 2 3 3 3 4 3 2 4 5 4 2 1 3 6 5 5 7 6 6 6 9 10 10 9 7 7 7 6
8 8 9 9 9 8 5 7 11 13 12 12 9 5 4 2 3 3 1 4 2 2 2 2 3 4 5 3 4 5 4 5 5 5 3 3 4 4 3 2 1 4 5 3 3 4 2 2 2 2 2 2 3 0 2 2 2 3 1 3 4 4 4 3 4 2 2 4 3 1 2 1 6 10 10 11 13 11 7 8 9 10 10 9 8 7 6 5
10 7 8 7 8 8 10 13 14 13 12 10 5 5 7 5 2 0 3 3 2 2 1 0 3 2 2 3 5 5 2 2 4 4 1 1 4 3 2 0 1 2 2 2 3 5 4 4 2 2 2 1 4 1 2 2 2 2 2 3 3 2 4 3 4 3 4 5 3 1 1 3 5 7 10 13 14 11 7 8 9 9 10 10 9 8 8 8
16 10 10 11 11 12 15 14 13 11 9 6 4 4 5 4 0 1 2 2 1 3 1 0 3 3 3 3 2 4 1 1 3 3 2 2 4 3 3 3 2 2 2 1 1 1 2 5 2 2 2 1 2 1 1 1 1 1 2 3 2 3 2 3 4 2 5 5 4 2 1 3 3 5 7 9 9 8 6 6 7 7 9 8 8 9 9 10
21 17 15 14 12 12 13 10 9 8 6 4 6 5 4 1 2 1 0 3 2 2 1 1 3 4 4 3 2 1 1 1 2 4 4 4 2 0 1 3 3 2 3 1 2 1 1 5 4 2 3 1 1 1 2 4 2 1 2 2 1 3 4 1 3 4 2 4 4 2 3 5 4 9 10 5 5 6 4 4 4 6 7 5 7 9 8 8
17 20 19 15 10 7 7 6 5 4 3 5 7 5 2 2 2 2 2 1 1 1 1 2 4 5 3 5 3 2 1 2 2 3 2 2 2 3 1 3 1 1 2 2 1 0 1 5 4 3 2 2 1 3 0 1 0 0 1 1 2 3 5 3 1 1 3 1 4 2 3 5 4 8 9 7 6 6 5 5 5 7 7 5 6 8 7 8
9 14 17 18 13 4 3 4 4 3 3 7 6 3 2 2 1 2 2 1 1 1 2 1 2 3 1 3 4 4 3 1 2 2 1 1 1 3 2 2 2 1 2 2 2 1 1 5 5 1 1 1 1 1 2 1 2 2 1 3 2 2 4 4 0 4 4 1 5 1 4 6 3 4 7 8 7 7 7 7 7 8 7 6 7 8 8 9
4 7 11 19 16 5 4 4 4 3 6 8 5 2 1 0 0 1 1 0 2 1 4 2 0 1 2 1 3 5 4 3 3 3 0 1 0 3 2 1 1 0 1 1 0 0 2 3 6 0 2 3 2 1 3 3 1 2 2 1 2 2 1 1 1 1 2 3 5 4 5 4 3 5 6 6 6 8 9 7 7 8 7 6 8 8 9 9
2 3 5 17 17 5 5 4 4 5 7 6 3 2 0 0 1 1 1 0 1 2 3 1 1 1 3 2 2 4 3 2 2 2 1 0 1 1 2 1 0 0 1 1 1 1 2 0 5 3 1 3 3 0 2 2 3 3 2 3 2 2 3 1 1 2 2 2 3 5 7 5 6 7 5 7 8 9 10 8 6 8 8 7 8 8 9 9
1 2 2 17 17 4 5 6 6 8 7 4 3 2 1 0 1 1 0 1 1 1 1 2 1 2 1 2 1 2 2 1 0 1 0 1 1 1 1 1 1 1 1 1 1 1 2 2 4 5 3 3 2 2 4 4 2 2 1 1 2 1 1 1 0 2 3 2 2 2 6 9 7 5 6 8 10 9 9 8 7 7 8 9 8 9 9 9
3 4 3 21 15 3 3 10 8 5 5 3 2 2 2 1 1 3 2 1 0 0 1 3 3 1 0 1 1 1 2 2 0 1 1 1 0 1 2 1 1 1 1 1 0 0 1 2 3 4 4 3 4 3 1 4 4 4 3 3 2 2 2 0 3 2 2 2 4 3 4 12 6 4 6 8 8 8 7 6 7 8 9 11 10 9 9 9
6 4 7 21 9 5 5 8 4 3 4 3 2 1 2 2 2 2 2 1 1 0 1 3 2 1 2 1 1 1 1 1 1 1 1 2 2 1 2 4 4 3 1 1 2 1 1 2 0 5 6 4 4 2 2 2 3 4 1 1 3 3 4 4 3 3 0 1 1 4 2 11 6 5 6 7 6 7 5 4 7 9 10 11 11 10 10 9
5 4 8 17 3 5 9 7 2 6 4 0 0 1 2 2 1 1 2 2 2 1 3 2 1 2 2 1 1 1 1 2 2 0 1 2 2 2 4 5 5 4 2 2 2 2 1 1 2 5 6 3 4 2 2 1 3 3 1 1 3 2 3 5 5 3 2 3 2 2 3 10 8 1 4 5 4 6 6 4 7 10 10 11 12 11 10 10
3 4 6 17 8 2 6 6 2 4 2 1 2 3 3 1 2 1 1 2 2 1 2 1 1 2 1 1 2 1 1 1 1 2 1 1 2 2 3 3 3 2 1 1 0 1 1 0 2 4 7 7 7 6 5 4 1 1 3 1 2 3 5 3 2 2 1 5 7 4 5 10 9 4 5 7 6 8 10 6 6 8 10 12 12 11 10 11
4 2 3 16 20 12 5 4 5 5 2 1 4 4 4 2 1 0 2 1 1 3 2 1 1 1 1 1 2 1 1 1 1 2 2 2 4 0 2 1 0 2 1 2 2 1 2 2 1 1 4 5 6 7 6 4 2 2 1 2 4 4 6 3 1 2 3 4 6 6 7 11 13 14 17 15 10 11 14 10 7 7 8 10 11 11 10 11
4 3 3 8 14 12 4 1 4 6 4 4 3 3 2 2 1 2 2 1 1 2 2 1 2 2 1 2 2 1 1 1 1 1 1 3 4 2 1 0 0 2 0 1 1 1 2 1 3 5 6 7 7 8 5 2 4 7 6 6 7 5 5 4 3 3 5 2 3 9 11 12 18 21 20 18 15 15 17 14 12 11 9 11 11 11 11 10
3 3 2 2 4 5 5 4 5 4 3 4 3 1 1 2 2 1 1 0 1 1 1 0 0 1 1 2 2 1 2 1 0 1 2 4 4 3 0 1 1 1 2 2 1 2 4 2 4 5 9 10 8 11 9 3 6 11 11 11 9 6 6 7 7 7 4 4 6 13 7 6 16 19 17 18 17 16 17 16 15 14 13 14 14 12 12 12
4 3 1 0 1 2 4 4 4 5 5 4 3 1 2 3 3 2 1 1 2 1 1 2 4 3 1 0 1 1 3 4 2 2 1 2 4 5 3 1 1 3 3 2 1 3 5 3 4 3 7 10 9 13 12 6 7 9 11 15 11 7 10 13 15 11 6 4 13 14 8 8 15 18 18 19 17 14 15 15 13 12 13 14 15 14 13 14
4 4 1 3 3 3 1 2 2 5 6 5 3 2 2 3 4 2 1 1 3 2 1 2 4 4 2 2 1 1 2 3 4 4 2 1 3 3 3 2 1 2 2 2 3 0 4 3 4 3 7 11 11 12 9 5 5 7 13 15 9 9 12 14 15 10 7 12 18 16 16 17 17 18 19 19 16 12 12 12 11 11 12 14 15 14 14 14
4 4 1 4 4 2 1 2 3 4 4 4 3 2 1 1 2 3 1 2 2 3 2 2 4 3 1 2 2 1 3 2 3 5 3 1 3 2 2 2 1 2 3 2 2 2 1 3 1 3 5 11 7 5 4 4 6 9 17 16 7 7 9 9 10 7 6 12 15 12 13 15 15 16 14 14 13 9 9 11 12 11 12 13 14 14 15 14
5 3 4 6 4 3 3 2 3 4 4 4 2 1 1 1 1 1 1 1 1 1 1 1 4 2 1 2 1 4 6 5 6 7 5 3 3 3 2 2 3 2 3 1 1 2 0 2 3 5 5 8 3 6 9 9 7 8 16 16 6 5 5 5 6 6 7 8 7 5 6 9 10 9 9 12 13 12 12 11 10 11 16 17 15 14 14 14
4 2 3 6 3 3 3 3 3 4 2 2 1 0 1 2 1 0 0 1 1 1 1 2 2 1 2 3 2 4 5 5 5 5 3 3 3 3 2 1 4 3 2 2 1 1 2 1 3 4 3 7 5 8 11 11 8 6 8 6 4 5 6 6 5 7 9 7 3 4 7 7 8 9 11 14 17 18 17 12 8 12 19 20 16 13 13 13
Wind_Direction
144 124 116 112 113 112 117 120 124 126 118 112 89 67 42 36 23 11 360 344 344 358 349 313 310 310 306 309 194 167 46 51 50 41 44 8 350 351 342 358 15 23 72 101 129 135 75 50 48 54 61 51 20 344 42 41 47 57 74 86 109 162 193 183 174 190 169 156 180 200 175 155 183 211 227 106 43 312 300 295 290 279 249 221 207 202 175 174
118 116 115 114 116 117 121 124 128 130 123 114 76 56 33 26 11 3 349 337 348 356 343 313 309 306 298 281 192 169 94 44 44 32 18 359 356 357 351 10 12 14 67 134 153 144 91 48 30 51 54 37 354 1 38 16 40 75 102 85 134 192 199 181 170 180 167 151 166 179 169 172 190 179 148 208 267 331 296 280 314 304 272 247 221 218 195 181
117 117 118 118 121 122 128 132 134 133 121 100 54 31 17 14 2 356 341 328 350 1 343 318 314 314 304 227 184 181 193 38 43 10 352 357 359 360 2 12 15 32 74 121 140 127 113 114 79 67 58 47 9 6 30 14 27 84 100 81 179 201 170 198 177 180 213 160 151 166 164 211 238 181 138 203 231 292 239 239 248 253 261 262 226 190 181 183
121 121 124 123 127 132 135 138 135 133 111 60 24 14 6 6 2 358 340 330 24 55 44 16 13 28 54 161 166 177 197 46 35 334 343 353 355 1 1 2 20 62 85 96 110 106 104 94 74 67 69 52 349 11 35 360 18 62 79 112 172 167 113 198 201 187 205 145 144 147 129 224 243 178 156 157 178 264 243 226 215 216 230 244 238 191 182 187
128 127 129 130 135 140 140 144 139 131 78 20 6 7 11 25 34 40 25 23 95 92 77 68 68 71 80 117 162 176 108 59 334 330 344 348 352 1 356 357 19 100 93 87 98 97 87 69 62 55 60 48 348 23 22 334 61 68 43 144 175 159 115 188 215 174 136 115 119 132 148 201 179 178 173 159 193 234 229 220 214 217 215 216 219 193 187 194
135 134 136 139 143 147 148 152 147 108 15 4 8 31 60 76 75 63 46 63 125 121 93 75 67 70 77 84 103 104 77 101 318 332 340 344 357 4 3 355 354 131 111 72 68 78 64 44 54 49 57 56 18 47 354 320 63 95 57 359 343 164 128 125 189 172 141 122 138 155 179 153 126 268 214 175 225 233 227 213 202 220 225 220 213 193 195 203
145 146 147 150 152 156 161 162 175 325 346 4 52 91 99 95 80 62 49 63 134 157 137 91 57 58 70 74 73 67 80 67 329 334 337 348 0 358 11 19 53 134 188 77 73 89 79 62 77 94 78 76 55 67 356 346 48 81 98 5 9 85 84 3 114 130 112 128 171 181 150 148 178 240 20 216 239 242 246 241 222 237 240 230 221 210 212 213
152 151 150 153 156 161 178 210 277 313 357 74 112 118 111 96 75 66 62 66 95 159 194 210 351 6 32 74 72 61 59 340 335 338 341 348 357 358 9 40 66 119 98 77 88 117 92 72 110 136 78 76 98 81 358 32 46 58 102 221 23 47 29 34 79 75 87 116 172 123 166 217 199 200 311 253 246 243 245 245 242 249 249 226 221 223 218 216
144 149 148 151 167 202 253 274 290 338 104 126 134 131 113 96 83 79 75 70 69 70 192 240 318 37 86 106 89 62 7 344 347 354 13 1 353 7 40 73 93 129 97 73 81 114 103 94 169 152 122 129 94 51 345 49 55 60 99 114 68 38 3 42 74 53 63 90 96 138 258 267 225 245 275 253 248 243 241 244 239 230 236 226 221 225 213 210
144 151 153 186 239 263 272 274 201 113 132 144 146 139 116 102 92 89 83 71 61 57 61 100 171 128 103 87 81 66 341 355 22 41 58 60 59 60 67 75 113 130 91 67 58 80 124 145 148 126 117 111 74 28 357 74 116 118 113 98 66 43 346 51 84 28 13 15 103 192 260 278 266 305 263 256 258 235 226 241 237 212 231 232 224 226 213 212
159 174 202 220 166 137 112 106 124 125 142 154 150 137 116 106 94 89 76 55 47 56 69 85 96 96 85 74 78 74 351 17 43 54 63 72 73 69 67 80 117 117 98 76 65 86 110 127 130 117 104 91 85 52 35 89 116 117 111 79 23 16 35 50 80 7 343 140 162 165 259 274 289 246 244 251 277 122 206 238 243 224 237 236 230 233 215 218
179 160 135 119 99 87 96 121 135 131 143 150 150 140 124 119 103 69 36 33 47 62 74 85 88 84 75 67 68 79 48 45 53 60 63 68 71 68 70 82 94 104 105 90 74 91 106 126 111 88 76 121 107 71 91 106 90 64 74 72 353 6 38 339 70 327 321 146 204 152 303 277 198 221 241 245 117 114 210 240 250 238 243 243 238 244 224 225
142 133 118 94 71 67 108 133 131 135 148 156 162 158 151 148 53 6 36 59 70 73 71 75 99 89 71 63 59 77 65 58 66 70 69 72 76 75 75 81 84 87 95 93 84 84 93 112 100 92 90 103 111 139 118 70 49 42 45 81 5 6 1 279 8 293 162 117 260 112 317 281 234 237 246 253 108 150 246 247 249 243 245 247 241 246 239 228
138 126 97 56 45 61 111 131 141 152 159 166 175 169 178 23 19 21 69 82 78 73 73 81 99 96 78 82 90 72 62 62 70 67 68 76 78 77 76 79 81 80 85 88 86 86 92 96 93 93 73 84 118 109 67 19 27 43 24 58 44 22 273 288 311 229 161 140 333 94 230 273 270 264 261 270 218 207 250 252 247 246 245 246 244 242 246 232
139 108 53 30 30 71 134 150 155 157 160 169 172 149 52 63 66 68 90 89 71 78 82 83 96 91 74 80 78 62 51 53 56 50 55 72 77 78 76 76 77 76 80 82 83 84 85 82 77 75 47 33 64 72 41 2 20 40 61 313 351 99 274 303 300 206 184 306 11 98 219 273 275 278 283 296 165 188 239 256 252 251 248 246 248 242 246 244
141 61 17 13 40 116 145 162 151 145 151 151 132 110 101 94 82 79 86 83 76 91 87 72 80 93 87 90 48 41 35 32 33 43 55 64 73 79 75 76 71 69 73 70 74 76 67 67 66 64 73 33 51 74 52 28 3 356 100 194 287 99 301 317 348 355 347 310 352 150 235 279 272 274 288 110 130 165 237 263 260 253 254 248 246 245 245 252
171 351 359 24 86 121 134 146 140 137 136 130 114 106 110 94 58 62 78 86 77 76 86 73 72 87 75 24 48 9 352 2 18 42 55 52 55 61 63 68 46 47 62 49 49 50 41 50 66 38 57 48 57 81 60 31 316 318 33 112 239 202 249 304 320 354 27 231 264 215 229 259 264 269 274 247 200 228 253 262 265 257 255 251 247 249 247 246
281 332 5 68 109 109 107 129 133 131 125 114 103 99 91 73 68 65 39 120 117 24 58 33 27 81 47 356 359 314 309 336 19 32 37 43 45 46 52 49 21 27 42 27 29 25 16 31 57 57 30 18 30 64 99 200 211 197 258 96 308 280 222 256 278 310 55 144 248 233 246 259 267 274 278 267 213 236 256 259 268 265 257 255 249 247 247 244
296 335 27 101 127 120 124 141 134 128 120 114 108 100 89 72 70 64 47 52 53 6 56 338 11 106 111 329 314 313 330 354 25 28 18 13 26 42 44 39 36 48 50 13 11 16 28 34 44 56 3 342 358 77 139 189 160 150 181 150 181 274 264 236 247 265 172 194 246 227 240 264 274 280 282 279 193 218 260 265 267 266 261 257 249 247 247 244
297 350 67 114 132 128 130 137 134 132 127 123 111 83 85 68 57 45 30 45 64 85 121 192 46 93 80 328 322 336 21 47 43 25 17 3 344 23 24 22 36 52 54 24 343 359 71 68 50 111 239 266 266 197 129 127 117 113 111 103 179 226 279 257 246 287 172 194 256 227 242 266 272 275 276 282 287 260 265 266 265 261 258 254 248 250 247 245
291 1 112 137 141 130 129 141 143 144 140 131 71 32 129 142 84 126 328 53 47 37 82 97 77 85 85 2 353 353 32 49 33 19 14 6 356 27 360 11 47 44 15 276 295 340 60 71 359 258 228 237 249 155 119 89 79 79 112 85 305 225 258 263 215 292 276 192 268 270 280 273 268 270 272 278 282 268 255 247 256 255 256 256 247 252 251 252
270 277 152 157 162 156 150 160 164 164 172 210 331 34 140 145 127 145 151 91 27 18 57 59 58 67 64 67 15 10 61 37 16 6 6 5 20 52 6 35 67 58 338 355 10 13 45 52 269 257 164 110 77 102 102 92 88 67 103 111 309 261 276 290 283 321 6 207 270 353 327 284 276 273 272 267 250 251 247 229 246 253 259 260 246 250 257 264
244 232 191 174 176 177 173 177 191 200 219 238 265 87 125 132 135 138 103 95 45 5 27 32 60 35 8 41 11 16 64 49 3 345 355 4 25 61 84 65 65 58 359 23 105 93 67 256 254 177 136 103 76 62 77 80 79 88 109 115 288 299 321 285 295 328 316 215 272 321 314 282 282 283 274 263 240 255 265 247 253 248 248 256 254 252 253 258
229 210 198 189 182 187 191 190 205 219 227 225 180 143 144 140 146 139 80 88 69 8 8 26 111 68 38 23 0 22 89 67 107 334 351 15 67 36 81 105 75 60 12 41 93 106 137 230 138 105 98 99 97 49 71 91 334 294 182 165 226 263 237 238 286 326 310 256 278 328 316 279 291 311 284 290 327 285 288 283 272 249 236 253 268 264 246 245
229 213 199 189 185 191 191 191 212 212 201 188 156 160 158 154 166 134 86 70 21 322 346 7 129 50 79 8 359 26 123 41 127 307 349 30 69 359 60 123 88 89 212 71 79 89 124 210 142 111 51 69 95 55 90 154 244 298 222 197 205 214 230 266 318 359 0 336 21 22 340 288 307 307 270 301 342 298 305 313 282 271 253 243 253 260 251 245
227 217 201 187 183 181 178 183 194 175 162 156 162 168 167 176 212 238 95 69 32 321 353 15 79 11 350 353 352 16 97 12 300 328 11 27 22 126 81 343 47 109 188 173 88 113 96 64 115 148 107 66 63 26 230 157 128 305 220 192 182 161 197 269 326 44 6 283 274 70 335 273 305 288 264 304 325 296 298 289 273 276 274 248 241 254 257 255
207 204 196 189 181 174 174 175 164 156 142 158 167 168 176 208 244 296 74 46 10 313 360 333 332 10 339 330 345 76 90 314 307 28 26 16 352 119 81 350 21 86 176 127 39 105 155 115 61 81 87 69 59 254 211 142 117 258 195 137 137 145 191 207 126 158 237 285 316 36 128 252 291 274 266 322 317 296 297 287 276 272 267 260 254 253 252 255
179 181 182 186 180 173 180 167 163 160 138 162 168 170 186 226 258 329 79 66 344 326 48 310 324 8 339 345 16 76 131 312 45 351 351 26 18 43 78 117 151 186 113 102 77 261 156 181 187 115 82 88 214 216 174 143 138 267 179 119 143 161 174 146 117 167 344 354 313 321 53 224 271 274 299 349 312 292 287 276 272 267 264 267 268 261 255 255
156 167 171 173 176 177 185 163 168 169 148 157 166 177 193 223 355 51 80 103 316 355 155 313 347 337 342 360 11 32 9 4 58 310 334 39 35 35 82 153 122 113 31 92 164 225 207 234 201 134 111 207 227 223 156 152 271 257 125 80 62 74 81 91 110 145 43 359 263 277 6 348 270 278 306 346 259 260 266 265 265 265 269 272 271 268 263 262
128 151 162 166 172 175 166 144 154 161 155 157 163 171 176 95 57 64 59 112 357 334 291 19 2 333 10 28 353 5 27 3 336 330 351 33 10 26 87 158 102 106 3 26 124 222 315 299 225 121 141 189 151 79 155 163 169 109 105 68 50 35 43 68 72 97 61 306 255 258 312 39 296 283 250 223 223 217 230 271 280 277 281 273 264 264 264 268
119 132 147 157 166 172 167 139 143 152 148 149 154 148 124 45 58 89 97 274 326 331 3 28 357 4 31 45 358 356 18 346 337 9 18 5 359 11 42 44 48 62 7 2 359 307 348 351 262 291 313 117 98 75 85 72 75 98 109 76 48 344 3 28 355 42 88 272 259 257 292 121 236 267 251 244 260 236 212 255 275 278 284 278 268 267 265 268
116 131 143 150 161 168 160 145 146 148 145 146 145 102 79 27 18 86 303 319 346 333 16 8 327 17 21 25 24 347 337 349 4 48 40 16 33 17 23 56 54 26 359 316 316 330 330 257 270 333 330 107 119 251 359 5 34 78 74 54 41 345 0 6 326 343 218 246 242 235 316 234 231 255 262 265 273 264 232 233 252 264 273 275 274 279 282 283
93 124 138 138 156 148 130 138 142 143 151 149 122 57 74 75 29 217 295 335 10 323 3 320 311 359 358 13 16 334 320 355 4 48 107 105 69 35 358 152 152 37 335 276 331 351 336 300 323 37 315 98 140 198 329 313 345 60 101 82 74 57 19 324 286 304 280 267 264 256 292 274 273 270 248 247 261 266 248 233 240 251 262 270 278 287 292 288
83 99 111 109 123 125 123 134 142 144 154 140 82 53 66 60 289 166 319 284 283 339 9 305 327 357 38 46 346 313 33 354 340 31 12 28 54 15 335 324 352 76 98 72 14 32 359 299 283 131 273 10 111 201 153 137 77 68 172 132 125 148 139 271 244 252 286 291 288 295 249 215 252 280 247 234 257 273 266 252 253 258 258 268 282 285 282 278
76 79 86 91 100 116 125 134 140 143 146 97 65 66 86 89 239 156 307 264 272 343 312 259 43 43 14 1 318 305 112 278 334 40 21 32 82 169 320 306 332 76 111 52 294 177 67 267 257 276 277 76 77 239 117 99 88 224 177 107 128 174 147 185 196 191 263 314 296 262 234 214 226 278 286 299 301 297 298 288 291 284 274 278 284 278 273 271
69 64 61 60 65 100 134 140 142 148 135 86 64 61 133 198 218 171 183 266 275 274 293 335 48 54 351 323 334 4 55 266 333 26 20 50 169 204 219 244 255 92 126 123 240 194 18 282 282 326 323 86 148 238 41 51 203 175 138 178 230 161 116 113 236 357 65 359 284 246 257 288 320 296 303 350 346 324 332 331 319 300 299 306 286 278 276 273
66 65 51 36 31 57 143 157 161 143 87 77 80 99 192 213 161 172 210 332 280 234 79 43 5 41 340 303 314 319 331 309 347 15 341 9 186 190 207 242 196 171 181 160 223 201 133 282 292 357 210 276 184 204 353 356 140 109 194 218 204 95 91 101 338 349 39 304 278 284 261 292 343 304 312 353 346 317 312 317 316 308 309 306 287 280 278 276
66 91 55 24 18 43 103 127 146 110 76 68 80 133 162 6 131 186 208 307 292 24 71 104 256 52 187 237 302 298 324 341 357 27 22 307 229 160 153 227 155 156 256 136 335 322 111 290 300 305 166 311 5 60 334 334 82 122 207 189 99 126 202 67 89 323 353 303 286 296 287 267 210 239 287 311 305 299 295 299 304 296 295 295 290 289 286 285
43 104 51 10 9 46 97 112 111 66 68 71 81 146 130 31 237 229 190 324 305 76 74 175 219 64 175 179 282 297 339 358 350 29 82 292 323 138 132 173 172 53 286 86 115 266 87 26 292 278 207 320 356 137 251 308 22 22 14 15 33 142 173 179 131 169 205 270 284 314 323 286 221 208 222 257 277 289 289 291 287 273 277 284 284 289 290 288
15 102 49 356 3 64 97 69 66 51 64 102 154 148 35 313 262 317 320 344 334 62 59 194 153 41 233 223 275 305 356 20 240 8 313 288 306 336 55 89 156 157 237 62 111 296 46 122 260 291 319 318 296 221 203 184 131 63 42 343 331 61 159 217 34 129 145 173 216 309 311 282 253 189 198 247 272 275 271 277 277 272 280 285 281 283 287 286
45 94 350 344 349 172 94 50 51 48 79 91 114 105 35 72 80 353 319 283 108 240 136 147 133 71 217 328 351 290 333 346 312 291 293 295 271 322 9 51 26 9 51 46 59 319 26 162 231 297 320 284 257 260 178 168 155 144 175 204 185 141 124 130 306 308 103 147 187 159 280 281 273 150 195 238 255 262 262 263 273 283 288 290 290 282 279 280
54 96 336 344 357 151 70 53 42 39 92 74 48 109 20 64 88 358 322 344 58 48 65 100 100 76 117 47 344 196 309 312 248 277 257 235 219 267 359 19 355 336 22 9 304 288 101 104 302 277 265 257 276 325 80 145 142 125 159 184 148 135 125 143 243 266 137 150 179 114 249 274 268 151 201 239 239 255 263 255 276 292 291 290 292 287 283 280
65 127 349 357 27 144 57 63 1 21 67 122 72 106 9 55 100 352 352 8 14 11 24 43 28 32 59 357 52 100 293 246 202 338 285 265 302 357 8 11 354 338 27 20 335 348 18 65 1 288 278 308 334 11 70 77 98 112 253 139 145 170 137 155 186 194 192 199 162 103 255 270 282 162 202 244 264 279 278 254 269 290 296 295 296 297 300 296
100 148 12 17 38 147 67 87 107 41 49 294 57 33 347 65 93 29 32 8 9 86 61 46 17 40 64 84 85 89 349 2 314 359 29 248 288 26 38 20 7 31 80 167 216 9 303 261 29 328 324 339 344 354 356 345 54 176 254 239 171 134 102 123 163 121 248 219 171 162 245 262 279 301 273 278 303 303 290 264 248 271 291 300 303 305 305 301
78 111 340 21 43 66 91 138 140 121 129 72 64 22 355 57 65 329 156 130 182 167 125 117 192 139 143 118 91 76 42 70 267 337 38 249 260 239 78 20 14 126 139 214 213 221 229 203 114 13 313 308 305 315 323 316 295 256 240 240 228 170 140 167 161 122 241 232 164 178 241 266 285 297 295 297 309 306 299 296 281 268 273 284 293 300 303 301
78 60 321 354 30 55 77 129 103 113 143 118 75 8 35 84 290 239 165 139 199 177 122 178 194 149 101 70 52 352 293 188 211 326 310 254 262 245 136 36 112 134 158 262 236 93 93 203 210 187 211 239 254 266 278 345 304 284 277 254 229 191 155 132 109 177 210 175 201 237 244 271 287 289 293 302 310 307 306 311 311 307 303 296 295 297 297 297
96 77 17 322 354 30 40 24 41 68 129 118 92 8 2 337 315 288 162 160 189 153 75 80 108 56 28 30 31 291 263 295 99 221 239 242 265 291 25 121 77 335 319 287 233 103 86 288 249 199 225 243 253 267 272 289 274 269 273 264 234 184 156 164 199 218 165 102 268 260 238 246 275 282 289 297 301 304 306 310 314 316 314 307 302 301 301 302
78 127 212 149 44 33 27 15 38 51 48 73 99 46 354 355 8 16 301 355 38 22 43 31 18 13 317 289 54 298 306 341 325 265 283 279 293 332 358 54 31 332 327 346 321 113 119 250 246 194 252 255 247 263 268 258 254 252 258 263 251 193 177 200 225 221 155 190 256 267 271 263 273 284 290 290 291 296 299 303 307 308 303 298 299 303 305 306
78 109 286 16 81 142 146 349 59 67 47 59 84 49 33 41 32 355 274 35 10 341 51 30 341 337 286 239 80 323 298 346 323 295 306 308 295 325 336 322 12 334 334 27 334 89 141 244 239 186 281 275 252 259 264 245 261 270 263 260 245 212 205 215 237 232 197 236 256 271 284 283 280 279 280 284 289 293 296 298 299 294 290 292 297 301 302 302
108 138 163 54 65 106 69 10 64 71 37 45 69 48 58 77 4 328 299 78 14 334 32 17 312 305 215 179 134 250 247 215 268 263 217 275 301 266 260 272 120 12 357 58 333 312 171 273 257 113 312 294 273 287 295 241 246 273 281 279 255 228 233 232 245 243 223 250 263 275 283 282 276 272 274 281 286 293 294 294 295 292 291 295 298 300 300 299
101 155 146 104 58 4 12 21 66 80 37 15 43 52 13 323 307 295 279 61 64 296 305 314 292 291 89 102 174 259 257 215 220 238 214 216 266 224 233 270 120 70 347 34 345 338 117 294 358 53 343 295 310 356 321 288 269 269 284 289 263 203 218 221 225 211 198 232 271 290 275 268 271 284 301 298 298 305 299 295 303 305 303 302 300 299 297 294
94 120 103 101 76 2 8 6 37 77 65 357 17 81 345 316 305 80 47 358 61 84 243 215 219 284 1 351 295 260 254 225 226 253 224 206 242 227 214 202 114 120 188 161 60 354 106 72 355 35 328 278 314 341 314 311 328 305 276 262 202 205 241 250 247 222 201 197 222 246 247 263 287 312 318 310 312 314 309 311 320 306 302 303 300 296 290 287
Height
820 820 820 820 820 821 821 821 821 822 822 821 821 821 820 820 819 819 818 817 817 816 815 815 813 813 813 813 813 814 814 812 811 809 811 817 818 816 815 813 813 811 811 811 811 811 811 810 810 810 808 812 821 825 826 831 834 831 838 846 854 867 866 864 871 872 867 867 872 875 875 874 873 875 876 876 875 873 872 871 870 869 868 868 868 868 869 868
821 820 821 821 821 821 821 822 822 822 822 821 821 821 821 820 819 819 818 817 816 816 815 814 812 811 811 811 812 812 813 812 810 810 814 818 817 816 815 814 813 812 812 811 811 811 811 812 812 811 812 820 827 826 827 833 835 839 846 846 853 865 865 865 868 869 868 866 870 874 877 876 872 874 876 874 873 874 871 869 869 868 866 866 867 867 867 867
821 821 821 821 821 822 822 822 822 822 822 821 821 821 821 820 819 819 818 817 816 816 814 812 811 809 809 809 811 812 812 811 811 815 817 817 816 816 815 814 813 812 812 811 811 811 811 813 812 813 817 824 832 830 829 834 839 846 847 845 857 865 866 870 869 868 868 867 870 874 878 877 873 875 875 873 873 874 872 867 867 866 864 864 866 867 866 866
821 821 821 822 822 822 822 822 822 822 822 821 821 821 821 820 819 818 817 817 816 816 814 812 810 809 808 808 810 812 811 812 817 820 818 817 816 815 814 814 814 813 813 812 812 812 812 813 812 816 820 826 835 835 836 841 842 847 851 851 861 867 864 869 869 869 870 869 870 873 876 875 874 877 875 874 873 871 869 865 864 862 862 862 864 865 865 865
821 821 822 822 822 822 822 822 822 822 822 821 821 821 820 820 819 818 817 817 817 816 814 813 811 810 809 809 811 811 812 819 824 821 818 818 816 815 815 814 814 814 814 813 813 813 812 813 814 819 826 831 835 835 841 850 847 851 864 866 867 868 863 868 872 871 871 871 871 873 874 872 874 875 873 874 870 864 861 861 861 860 860 860 862 863 863 863
822 822 822 822 822 822 822 822 822 822 822 821 821 821 820 820 820 819 818 817 816 816 815 814 813 812 811 811 813 811 815 826 828 821 819 818 816 816 815 814 815 814 814 814 814 813 814 815 816 824 834 840 843 842 847 853 848 850 865 871 870 869 866 870 874 871 872 869 869 873 872 873 874 871 874 875 866 859 857 858 859 858 859 859 860 861 861 861
822 822 822 822 822 822 822 822 822 822 821 821 821 821 820 820 820 819 818 817 816 816 815 814 814 814 814 813 813 813 819 828 827 822 820 817 816 816 815 815 815 814 815 814 814 815 817 817 821 833 838 842 847 849 852 852 848 848 860 870 871 871 870 872 874 873 872 868 870 875 873 873 871 870 876 871 861 858 857 857 858 857 858 859 859 859 858 858
822 822 822 822 822 822 822 822 822 822 821 821 821 821 821 820 820 820 819 817 817 816 815 815 815 814 814 813 813 817 825 829 826 822 820 818 817 816 816 816 815 815 815 814 816 816 818 821 826 834 839 844 847 850 853 849 849 855 862 869 870 872 874 875 874 872 872 871 874 875 871 872 872 874 874 864 856 856 856 856 857 857 857 858 857 856 856 856
822 822 822 822 822 822 822 822 821 821 821 821 821 821 820 820 820 820 819 818 817 816 816 815 815 814 814 814 813 820 831 832 827 823 821 819 818 817 816 816 815 815 815 816 817 815 818 825 829 830 836 847 849 851 854 847 851 863 867 870 870 872 874 874 873 872 872 873 875 872 869 872 875 876 867 854 851 853 854 855 855 856 856 855 855 854 854 854
822 822 822 822 822 822 821 821 821 821 821 820 820 821 821 821 820 820 820 819 818 818 816 814 815 814 815 814 814 827 836 832 829 825 822 820 818 817 816 816 816 816 816 817 818 817 818 823 828 828 832 845 852 855 857 852 858 869 870 869 870 871 873 872 870 872 873 872 874 871 868 870 875 876 860 846 849 852 852 853 853 854 853 852 852 852 851 851
822 822 822 822 822 822 821 821 821 820 820 821 821 821 821 821 821 821 820 820 820 819 818 816 815 815 815 814 820 834 837 832 831 827 824 822 818 818 817 817 817 815 816 818 820 820 819 823 826 827 832 844 853 858 861 862 866 869 865 865 870 871 871 872 871 871 872 871 873 872 869 869 873 872 856 845 848 852 851 850 851 852 850 850 850 850 850 849
822 822 822 822 822 822 821 821 821 821 821 821 821 822 822 822 821 821 821 820 820 819 819 818 817 817 814 817 828 837 836 834 833 828 825 822 820 821 821 819 819 817 816 819 824 825 824 826 825 828 838 847 854 858 862 868 869 866 864 864 869 870 869 871 872 873 871 869 873 873 866 862 867 862 845 844 850 851 852 849 849 849 848 848 848 848 848 846
823 823 823 823 822 822 821 821 821 821 821 821 822 822 822 822 822 822 821 821 821 820 820 818 818 817 815 824 837 837 836 836 833 831 828 825 825 825 824 822 821 821 819 820 826 827 827 828 825 832 844 849 857 859 859 868 868 865 868 869 870 868 868 873 875 874 870 871 874 873 864 850 851 851 842 846 851 850 850 848 847 846 846 847 847 847 845 844
823 823 823 823 823 822 822 822 821 822 822 822 823 822 823 823 822 822 821 822 821 821 821 819 820 818 819 832 840 836 837 837 834 833 831 830 828 826 827 826 824 825 824 824 828 829 830 829 826 836 848 852 857 859 860 868 867 869 871 874 879 870 863 871 876 871 867 872 873 870 868 851 839 840 843 848 850 850 848 845 845 844 844 845 845 845 843 842
823 823 823 823 823 822 822 822 822 822 822 823 823 823 823 822 822 822 822 822 822 822 822 821 820 819 825 836 838 837 838 836 835 834 833 833 830 829 831 829 828 829 828 829 830 832 832 830 831 843 854 855 856 858 863 868 870 876 869 867 883 877 863 868 875 874 868 871 874 868 868 858 842 839 843 849 850 851 848 843 845 844 843 843 843 844 841 839
823 824 823 823 823 823 823 822 822 823 823 823 823 823 823 823 823 823 823 823 822 823 822 822 822 822 829 839 838 838 839 837 837 836 835 835 832 832 833 831 832 832 832 833 832 834 832 832 844 855 858 857 861 860 863 867 868 877 870 861 873 873 866 866 870 878 875 870 872 869 866 858 845 841 845 851 850 850 848 843 844 843 842 842 841 841 839 838
824 823 823 824 823 823 823 823 823 823 823 824 824 824 824 823 823 823 823 823 823 824 822 824 825 823 832 840 839 840 841 839 839 838 837 836 835 834 833 833 834 832 833 833 832 835 835 841 854 859 862 868 873 865 859 863 862 869 872 867 873 874 870 865 864 876 879 873 871 871 872 859 845 842 844 847 847 848 846 841 840 841 840 840 839 839 838 836
824 824 824 824 824 824 823 823 824 823 824 824 824 825 824 825 824 823 824 823 823 823 824 826 824 828 840 842 841 843 842 840 840 839 838 837 836 835 834 835 834 834 835 836 838 841 843 851 857 857 863 869 873 865 855 860 862 862 866 864 869 875 875 869 865 873 878 875 873 873 872 860 847 844 840 840 845 844 841 839 838 838 837 837 837 836 834 834
824 824 824 824 825 824 824 824 824 824 825 825 825 825 825 825 823 824 825 825 827 829 834 836 832 838 848 845 844 844 841 841 840 839 839 838 837 837 836 837 837 837 839 842 845 850 851 854 857 859 864 868 874 874 866 867 869 866 869 868 866 867 869 869 869 875 881 875 873 873 867 856 847 843 836 835 841 842 838 839 838 837 836 835 834 833 831 830
824 824 824 825 825 825 825 825 825 825 825 825 826 825 826 828 831 835 835 833 837 840 842 843 840 843 847 845 844 842 841 842 841 841 840 839 838 837 839 840 841 843 849 852 852 858 859 856 863 869 872 876 881 885 883 881 880 874 873 871 872 872 864 864 869 878 884 873 864 869 868 858 849 841 835 833 838 839 835 835 834 833 833 832 831 829 827 826
824 824 825 825 826 826 826 826 827 826 826 826 826 827 829 831 835 841 842 842 844 844 842 843 843 843 845 846 844 843 843 841 840 842 840 840 839 838 843 845 843 847 859 864 860 860 857 857 869 877 880 885 887 891 889 884 881 877 874 870 872 876 865 864 872 877 883 872 860 870 868 853 845 838 833 833 835 832 827 827 825 823 827 828 828 826 823 822
823 824 825 825 826 827 827 828 828 827 827 827 827 828 829 829 830 833 835 841 845 844 843 844 844 844 845 845 845 844 844 843 842 842 841 841 839 841 848 850 849 854 863 864 859 859 861 864 873 880 888 892 892 895 888 881 879 875 876 871 866 873 870 866 874 878 881 871 858 866 865 845 837 835 830 830 831 827 825 826 822 820 822 821 822 821 820 819
823 823 824 825 826 826 827 828 828 828 828 828 829 829 829 829 831 830 830 837 845 846 846 845 845 846 845 844 846 845 845 849 849 846 844 842 843 848 851 853 856 860 863 859 855 858 863 868 878 887 891 885 884 890 884 876 876 873 873 869 864 874 872 859 866 876 878 875 866 867 866 849 836 831 824 826 832 829 828 829 827 828 823 816 818 819 818 816
822 823 823 824 825 826 827 828 828 828 827 828 830 830 831 830 831 831 832 840 846 846 847 847 847 847 847 847 847 846 848 854 854 850 848 845 849 853 853 858 859 861 868 866 859 861 864 874 887 892 889 881 875 878 878 870 869 873 874 868 865 871 871 863 869 876 871 876 877 866 853 836 828 823 812 820 832 826 824 825 819 821 822 820 819 817 816 814
820 821 822 823 824 825 826 827 827 827 827 829 829 830 831 831 831 831 833 842 847 846 846 847 847 848 849 848 847 849 851 853 855 853 851 851 853 854 858 865 859 858 870 872 865 864 868 882 889 883 880 878 869 868 875 872 867 868 868 868 868 868 872 872 874 874 860 858 872 868 845 824 819 818 807 813 824 816 816 819 808 807 814 818 816 810 810 810
819 819 821 821 823 824 825 826 826 826 827 829 829 831 831 831 832 831 833 845 852 851 849 847 848 849 848 850 850 851 851 852 855 855 853 853 854 854 857 865 863 861 871 873 869 866 872 886 888 878 873 871 867 868 876 878 868 861 866 873 874 873 875 876 873 869 854 850 870 877 855 834 823 812 810 821 823 812 811 811 804 802 804 806 808 805 805 805
817 818 819 820 822 823 824 825 825 826 827 828 829 830 831 832 832 831 836 850 858 856 853 849 850 851 850 854 854 850 852 855 854 854 855 854 854 855 853 859 863 865 876 874 863 865 872 878 881 876 870 867 866 866 873 881 867 857 871 879 875 875 874 876 873 865 863 861 868 874 862 851 837 814 820 834 821 806 804 802 800 799 798 799 801 801 801 800
816 818 818 819 821 822 824 824 824 826 826 827 829 830 832 832 832 832 839 857 864 857 854 852 850 851 852 854 855 854 857 859 854 853 856 855 854 854 852 859 862 865 879 871 853 861 871 867 867 867 866 865 864 865 873 880 868 863 881 884 879 881 877 880 876 867 879 870 851 861 865 855 840 817 821 832 818 806 802 797 795 794 794 797 797 798 798 798
817 817 818 819 821 822 824 823 824 826 826 828 829 830 833 831 832 836 843 860 864 856 857 855 849 854 858 856 857 861 860 860 860 857 856 856 855 854 856 865 868 867 878 875 857 861 870 870 870 865 863 864 865 873 879 876 870 876 889 887 885 888 884 887 879 867 877 865 843 860 869 855 837 815 814 822 814 806 800 793 794 795 797 799 798 797 796 796
817 817 819 820 821 822 823 824 825 825 827 829 829 832 832 832 838 844 852 861 861 859 862 857 856 865 865 857 857 864 863 864 868 863 857 859 857 859 865 870 871 866 869 872 865 867 876 879 879 871 867 868 871 881 887 881 880 885 887 883 881 884 883 885 883 874 866 850 848 870 874 860 843 816 806 808 803 798 795 794 795 796 797 798 797 797 795 794
818 818 819 820 821 823 823 825 826 826 828 829 831 832 832 838 845 850 859 865 862 864 864 864 871 875 871 865 863 868 867 867 872 866 859 865 864 863 866 866 867 863 857 859 861 868 876 873 872 874 874 876 874 878 887 890 890 888 880 872 865 867 871 868 869 870 854 838 853 877 877 869 853 820 800 800 802 803 802 799 796 794 794 794 794 794 795 797
819 820 820 821 822 823 823 825 826 828 829 829 831 832 836 845 851 859 867 865 863 870 872 873 878 878 878 876 873 877 875 870 875 875 874 877 876 878 880 876 876 865 855 862 862 859 865 865 870 875 876 878 873 867 876 885 887 882 872 861 852 856 862 854 853 861 851 843 863 880 874 864 848 820 803 802 799 801 806 804 800 797 795 793 794 793 794 797
821 821 821 822 823 823 824 826 827 828 829 830 831 834 841 848 857 874 878 867 870 881 883 882 883 883 881 872 873 885 882 874 877 881 885 884 878 885 893 896 894 876 863 872 871 857 855 862 870 869 869 878 875 860 857 864 869 866 862 857 852 861 867 858 862 869 858 851 869 887 876 854 832 811 802 801 794 794 803 805 803 802 799 796 797 798 797 797
822 822 822 823 824 824 826 827 828 829 830 831 832 838 846 853 867 882 878 873 882 886 886 888 883 880 878 873 881 889 878 875 881 880 879 876 871 875 883 890 895 887 876 877 878 872 860 854 861 863 866 873 873 867 862 862 863 868 875 869 855 858 862 859 861 858 853 860 875 884 865 836 816 799 795 799 797 800 803 805 808 806 805 806 803 801 797 793
823 823 824 824 825 826 828 828 829 830 829 831 836 844 851 861 874 879 875 880 887 882 884 890 881 870 872 878 889 893 881 874 880 878 873 872 873 875 878 883 890 890 880 871 878 885 869 854 863 873 875 874 870 874 878 867 861 875 885 869 855 858 858 866 879 879 882 884 875 868 850 829 816 798 796 802 796 797 800 800 803 798 799 807 800 792 790 787
824 824 824 826 828 828 828 829 830 830 831 832 837 850 863 872 878 879 882 887 887 881 877 879 876 867 866 874 879 886 887 880 877 874 872 878 882 882 883 885 892 893 882 873 876 880 866 854 866 875 874 877 875 876 881 869 858 870 873 860 866 878 866 865 886 902 907 886 858 854 840 824 820 799 790 797 788 786 791 789 792 790 791 797 790 784 785 784
824 825 826 829 829 829 829 830 830 830 831 833 841 861 879 885 887 889 893 893 893 890 875 866 875 876 871 872 870 874 881 879 878 873 870 878 879 879 884 887 894 896 891 886 880 879 875 859 863 873 866 873 886 880 877 878 869 864 862 861 874 884 873 868 873 878 885 869 849 854 848 832 828 808 789 790 786 783 786 786 788 787 785 786 783 782 783 782
824 825 827 830 831 831 831 830 831 832 832 840 858 877 887 889 895 899 900 898 896 891 875 866 878 885 881 874 869 876 879 870 871 874 871 874 874 877 883 884 892 899 899 897 882 882 887 864 859 877 872 871 885 877 867 876 879 868 865 870 872 865 861 869 870 860 866 868 853 852 858 849 835 814 792 785 785 785 787 789 788 784 783 784 783 782 782 781
824 825 829 834 832 832 832 831 833 832 832 847 869 882 887 891 899 904 904 903 897 886 875 874 883 886 885 881 874 881 887 874 872 877 873 872 874 879 885 885 890 898 902 901 887 885 892 873 858 873 880 874 874 868 858 863 875 875 871 875 876 871 868 871 876 869 863 867 861 850 842 828 815 808 794 785 787 787 786 787 785 783 784 785 785 783 782 781
824 826 832 836 833 833 834 831 833 836 843 864 879 883 889 893 898 906 908 905 899 888 881 882 886 882 882 887 885 887 892 886 883 880 875 878 877 876 888 891 888 895 901 901 895 889 890 881 864 865 876 872 860 860 859 855 864 870 867 870 874 881 886 879 879 885 870 861 872 870 842 807 796 801 794 787 788 786 784 785 784 785 786 785 786 785 782 781
824 828 834 836 833 835 833 833 849 861 867 881 888 888 894 895 896 904 909 906 902 897 893 891 889 885 882 885 888 892 891 887 889 885 879 882 878 873 892 904 897 897 897 892 893 891 888 885 876 868 866 855 851 871 880 871 871 869 861 865 867 870 877 867 867 889 891 874 874 879 854 809 788 792 791 787 786 783 786 789 786 787 787 784 784 783 781 780
827 835 840 836 833 834 832 845 874 886 880 885 892 893 897 898 896 900 904 903 901 898 897 895 893 892 890 887 890 895 891 885 887 885 880 882 880 879 900 918 914 907 898 890 894 899 896 892 886 875 865 859 866 886 892 886 885 881 873 877 876 868 864 855 853 872 888 890 892 896 873 817 782 787 789 785 787 787 791 794 789 787 787 784 782 779 778 777
834 841 842 837 835 835 835 851 877 886 887 895 900 901 901 900 897 899 900 899 897 895 893 894 896 894 894 896 895 894 892 886 882 883 883 885 891 900 915 923 918 910 901 894 895 901 899 892 886 872 861 864 877 887 890 889 885 876 874 882 880 870 867 865 866 870 872 878 887 893 871 815 780 788 792 787 792 793 794 796 792 787 785 781 778 776 774 772
841 843 843 839 835 832 839 856 870 880 892 896 894 896 901 902 899 896 896 896 898 897 891 893 899 896 898 904 899 894 895 887 880 888 891 887 895 914 923 920 914 907 900 898 899 899 891 885 883 873 861 859 862 866 871 875 875 868 871 884 885 879 880 879 882 883 869 861 866 868 852 811 784 788 790 788 791 790 789 793 791 788 784 778 775 773 772 770
842 843 846 845 839 839 854 870 871 875 887 887 885 892 895 897 902 901 898 899 904 903 893 893 901 900 900 903 898 897 901 891 882 890 895 890 895 911 921 919 916 909 906 911 913 902 890 887 884 876 871 869 862 856 856 861 870 870 871 881 882 880 877 867 870 874 863 862 868 854 832 808 789 787 785 784 789 788 784 785 785 786 783 779 777 773 771 770
843 848 852 851 849 854 870 884 878 872 879 879 880 891 891 886 897 906 902 898 902 905 898 897 902 899 896 894 888 889 896 897 893 890 888 884 885 902 919 920 917 913 911 916 916 905 896 896 890 878 873 873 865 859 863 870 872 866 864 868 869 877 880 870 869 866 855 862 864 838 824 819 804 795 790 786 788 787 782 780 780 780 780 778 776 773 771 769
848 860 868 860 857 863 871 881 882 877 879 877 878 889 890 884 890 898 899 898 903 905 900 898 900 893 887 888 886 885 890 896 897 892 888 887 887 900 918 921 918 916 913 914 912 904 893 888 891 889 878 874 872 865 868 877 874 865 862 858 858 872 879 871 863 853 847 856 847 821 821 827 811 797 795 791 790 787 782 781 780 780 780 777 772 770 768 765
854 868 879 871 867 872 873 878 886 886 883 885 891 896 890 885 887 889 893 899 903 903 896 892 895 894 893 894 889 885 886 887 887 887 888 893 893 893 900 911 917 917 914 911 909 904 892 884 893 897 883 877 880 872 869 877 875 869 864 857 859 870 873 863 853 847 848 848 830 813 817 822 810 801 797 792 790 789 786 785 785 784 781 775 769 767 765 761
861 868 879 876 875 884 888 890 892 887 884 887 892 896 891 886 887 891 896 896 893 898 896 886 888 896 900 901 894 887 887 886 885 887 889 893 894 887 884 892 907 917 914 906 906 907 895 884 896 904 887 875 874 872 876 880 874 865 858 854 859 864 865 863 854 850 853 845 829 824 827 825 813 804 800 793 790 792 792 789 786 783 778 772 768 765 762 759
860 863 872 875 880 890 896 897 891 880 883 888 887 893 898 890 888 895 901 895 885 891 897 889 889 898 902 903 897 889 890 892 889 891 893 893 894 893 887 884 895 911 911 904 907 908 895 886 898 904 884 864 861 867 876 880 875 866 853 848 857 861 862 867 863 859 859 850 841 842 843 834 815 801 800 797 793 794 792 786 782 777 773 770 766 763 760 756
860 863 865 865 877 891 891 893 890 879 881 890 888 894 898 892 895 899 899 902 898 892 895 895 893 899 904 904 897 892 897 900 894 895 899 898 897 898 896 893 897 901 903 907 909 904 898 895 898 899 881 860 859 867 868 869 871 865 847 837 847 855 849 848 853 855 851 842 840 843 838 822 803 795 798 795 788 787 784 780 779 775 769 766 763 762 759 754
862 864 864 862 875 892 891 888 888 882 887 897 896 898 897 895 905 904 892 900 908 903 903 903 898 898 897 894 893 896 902 904 902 903 907 907 907 907 904 903 904 899 897 906 910 911 911 900 893 899 884 859 864 874 867 858 848 836 827 823 830 840 837 832 835 841 841 836 831 827 815 802 796 798 799 793 785 781 776 775 780 776 768 762 761 761 758 752